Time,TemperatureF,DewpointF,PressureIn,WindDirection,WindDirectionDegrees,WindSpeedMPH,WindSpeedGustMPH,Humidity,HourlyPrecipIn,Conditions,Clouds,dailyrainin,SoftwareType,DateUTC
2013-01-12 00:03:00,66.1,64.0,30.66,South,178,5.0,-999.0,94,-99.99,,,0.00,weatherlink.com 1.10,2013-01-12 06:03:00,
2013-01-12 00:18:00,66.4,65.0,30.66,SSE,167,6.0,-999.0,94,-99.99,,,0.00,weatherlink.com 1.10,2013-01-12 06:18:00,
2013-01-12 00:33:00,66.7,65.0,30.65,South,180,4.0,-999.0,94,-99.99,,,0.00,weatherlink.com 1.10,2013-01-12 06:33:00,
2013-01-12 00:48:00,67.0,66.0,30.65,SSE,159,6.0,-999.0,95,-99.99,,,0.00,weatherlink.com 1.10,2013-01-12 06:48:00,
2013-01-12 01:03:00,67.3,66.0,30.65,South,180,7.0,-999.0,94,-99.99,,,0.00,weatherlink.com 1.10,2013-01-12 07:03:00,
2013-01-12 01:18:00,67.8,66.0,30.65,SSE,167,5.0,-999.0,94,-99.99,,,0.00,weatherlink.com 1.10,2013-01-12 07:18:00,
2013-01-12 01:33:00,68.3,67.0,30.65,South,170,8.0,-999.0,95,-99.99,,,0.00,weatherlink.com 1.10,2013-01-12 07:33:00,
2013-01-12 01:48:00,68.8,67.0,30.65,SSW,211,12.0,-999.0,95,-99.99,,,0.00,weatherlink.com 1.10,2013-01-12 07:48:00,
2013-01-12 02:03:00,69.1,67.0,30.63,South,171,7.0,-999.0,94,-99.99,,,0.00,weatherlink.com 1.10,2013-01-12 08:03:00,
2013-01-12 02:18:00,69.2,68.0,30.63,SSW,195,11.0,-999.0,94,-99.99,,,0.00,weatherlink.com 1.10,2013-01-12 08:18:00,
2013-01-12 02:33:00,69.3,68.0,30.64,SSW,201,5.0,-999.0,94,-99.99,,,0.00,weatherlink.com 1.10,2013-01-12 08:33:00,
2013-01-12 02:48:00,69.4,68.0,30.64,SSW,194,5.0,-999.0,94,-99.99,,,0.00,weatherlink.com 1.10,2013-01-12 08:48:00,
2013-01-12 03:03:00,69.5,68.0,30.64,SSW,204,6.0,-999.0,94,-99.99,,,0.00,weatherlink.com 1.10,2013-01-12 09:03:00,
2013-01-12 03:18:00,69.4,68.0,30.64,SSW,199,7.0,-999.0,94,-99.99,,,0.00,weatherlink.com 1.10,2013-01-12 09:18:00,
2013-01-12 03:33:00,69.4,68.0,30.63,SSW,194,4.0,-999.0,94,-99.99,,,0.00,weatherlink.com 1.10,2013-01-12 09:33:00,
2013-01-12 03:48:00,69.4,68.0,30.63,South,182,5.0,-999.0,94,-99.99,,,0.00,weatherlink.com 1.10,2013-01-12 09:48:00,
2013-01-12 04:03:00,69.2,68.0,30.62,South,171,2.0,-999.0,95,-99.99,,,0.01,weatherlink.com 1.10,2013-01-12 10:03:00,
2013-01-12 04:18:00,69.4,68.0,30.61,South,191,3.0,-999.0,95,-99.99,,,0.01,weatherlink.com 1.10,2013-01-12 10:18:00,
2013-01-12 04:33:00,69.7,68.0,30.59,South,178,4.0,-999.0,95,-99.99,,,0.01,weatherlink.com 1.10,2013-01-12 10:33:00,
2013-01-12 04:49:00,69.8,68.0,30.59,South,184,1.0,-999.0,95,-99.99,,,0.01,weatherlink.com 1.10,2013-01-12 10:49:00,
2013-01-12 05:04:00,70.1,69.0,30.59,South,180,5.0,-999.0,95,-99.99,,,0.01,weatherlink.com 1.10,2013-01-12 11:04:00,
2013-01-12 05:19:00,70.3,69.0,30.59,South,186,7.0,-999.0,95,-99.99,,,0.01,weatherlink.com 1.10,2013-01-12 11:19:00,
2013-01-12 05:34:00,70.4,69.0,30.58,SW,220,6.0,-999.0,94,-99.99,,,0.01,weatherlink.com 1.10,2013-01-12 11:34:00,
2013-01-12 05:49:00,70.5,69.0,30.58,South,180,4.0,-999.0,94,-99.99,,,0.01,weatherlink.com 1.10,2013-01-12 11:49:00,
2013-01-12 06:04:00,70.7,69.0,30.58,South,188,5.0,-999.0,93,-99.99,,,0.01,weatherlink.com 1.10,2013-01-12 12:04:00,
2013-01-12 06:19:00,70.8,69.0,30.59,South,174,6.0,-999.0,93,-99.99,,,0.01,weatherlink.com 1.10,2013-01-12 12:19:00,
2013-01-12 06:34:00,70.8,69.0,30.59,South,183,5.0,-999.0,93,-99.99,,,0.01,weatherlink.com 1.10,2013-01-12 12:34:00,
2013-01-12 06:49:00,71.0,69.0,30.60,SSW,196,6.0,-999.0,93,-99.99,,,0.01,weatherlink.com 1.10,2013-01-12 12:49:00,
2013-01-12 07:04:00,71.1,69.0,30.60,SSW,194,6.0,-999.0,92,-99.99,,,0.01,weatherlink.com 1.10,2013-01-12 13:04:00,
2013-01-12 07:19:00,71.1,69.0,30.60,South,188,4.0,-999.0,92,-99.99,,,0.01,weatherlink.com 1.10,2013-01-12 13:19:00,
2013-01-12 07:34:00,71.3,69.0,30.59,South,181,9.0,-999.0,92,-99.99,,,0.01,weatherlink.com 1.10,2013-01-12 13:34:00,
2013-01-12 07:49:00,71.4,69.0,30.60,SSE,160,10.0,-999.0,92,-99.99,,,0.01,weatherlink.com 1.10,2013-01-12 13:49:00,
2013-01-12 08:04:00,71.3,69.0,30.60,South,185,4.0,-999.0,92,-99.99,,,0.01,weatherlink.com 1.10,2013-01-12 14:04:00,
2013-01-12 08:19:00,71.3,69.0,30.61,South,171,5.0,-999.0,92,-99.99,,,0.01,weatherlink.com 1.10,2013-01-12 14:19:00,
2013-01-12 08:34:00,71.3,69.0,30.60,SSE,165,4.0,-999.0,92,-99.99,,,0.01,weatherlink.com 1.10,2013-01-12 14:34:00,
2013-01-12 08:49:00,71.4,69.0,30.61,SE,144,9.0,-999.0,92,-99.99,,,0.01,weatherlink.com 1.10,2013-01-12 14:49:00,
2013-01-12 09:04:00,71.5,69.0,30.61,South,175,12.0,-999.0,91,-99.99,,,0.01,weatherlink.com 1.10,2013-01-12 15:04:00,
2013-01-12 09:19:00,71.7,69.0,30.61,South,170,7.0,-999.0,91,-99.99,,,0.01,weatherlink.com 1.10,2013-01-12 15:19:00,
2013-01-12 09:34:00,71.9,69.0,30.61,SSE,165,11.0,-999.0,91,-99.99,,,0.01,weatherlink.com 1.10,2013-01-12 15:34:00,
2013-01-12 09:49:00,72.1,69.0,30.60,SSE,147,10.0,-999.0,90,-99.99,,,0.01,weatherlink.com 1.10,2013-01-12 15:49:00,
2013-01-12 10:04:00,72.2,69.0,30.59,SE,138,14.0,-999.0,90,-99.99,,,0.01,weatherlink.com 1.10,2013-01-12 16:04:00,
2013-01-12 10:19:00,72.3,69.0,30.59,SE,142,12.0,-999.0,89,-99.99,,,0.01,weatherlink.com 1.10,2013-01-12 16:19:00,
2013-01-12 10:34:00,72.3,69.0,30.59,South,184,10.0,-999.0,89,-99.99,,,0.01,weatherlink.com 1.10,2013-01-12 16:34:00,
2013-01-12 10:49:00,72.3,69.0,30.59,SSW,192,15.0,-999.0,89,-99.99,,,0.01,weatherlink.com 1.10,2013-01-12 16:49:00,
2013-01-12 11:04:00,72.5,69.0,30.58,South,170,5.0,-999.0,89,-99.99,,,0.01,weatherlink.com 1.10,2013-01-12 17:04:00,
2013-01-12 11:19:00,72.5,69.0,30.57,South,173,13.0,-999.0,89,-99.99,,,0.01,weatherlink.com 1.10,2013-01-12 17:19:00,
2013-01-12 11:34:00,72.9,69.0,30.57,SE,142,7.0,-999.0,88,-99.99,,,0.01,weatherlink.com 1.10,2013-01-12 17:34:00,
2013-01-12 11:49:00,73.2,69.0,30.56,South,191,8.0,-999.0,87,-99.99,,,0.01,weatherlink.com 1.10,2013-01-12 17:49:00,
2013-01-12 12:04:00,73.3,69.0,30.54,SSE,151,10.0,-999.0,87,-99.99,,,0.01,weatherlink.com 1.10,2013-01-12 18:04:00,
2013-01-12 12:19:00,73.1,69.0,30.54,SSE,156,11.0,-999.0,87,-99.99,,,0.01,weatherlink.com 1.10,2013-01-12 18:19:00,
2013-01-12 12:34:00,73.2,69.0,30.52,South,188,7.0,-999.0,87,-99.99,,,0.01,weatherlink.com 1.10,2013-01-12 18:34:00,
2013-01-12 12:49:00,73.7,70.0,30.51,SSW,205,11.0,-999.0,87,-99.99,,,0.01,weatherlink.com 1.10,2013-01-12 18:49:00,
2013-01-12 13:04:00,73.9,70.0,30.51,SSE,163,9.0,-999.0,86,-99.99,,,0.01,weatherlink.com 1.10,2013-01-12 19:04:00,
2013-01-12 13:19:00,73.7,70.0,30.50,South,180,10.0,-999.0,87,-99.99,,,0.01,weatherlink.com 1.10,2013-01-12 19:19:00,
2013-01-12 13:34:00,73.6,70.0,30.50,SSW,196,9.0,-999.0,87,-99.99,,,0.01,weatherlink.com 1.10,2013-01-12 19:34:00,
2013-01-12 13:49:00,73.7,70.0,30.50,South,173,12.0,-999.0,87,-99.99,,,0.01,weatherlink.com 1.10,2013-01-12 19:49:00,
2013-01-12 14:04:00,73.7,70.0,30.50,SSE,168,10.0,-999.0,87,-99.99,,,0.01,weatherlink.com 1.10,2013-01-12 20:04:00,
2013-01-12 14:19:00,73.9,70.0,30.49,South,173,13.0,-999.0,87,-99.99,,,0.01,weatherlink.com 1.10,2013-01-12 20:19:00,
2013-01-12 14:34:00,73.9,70.0,30.48,SE,136,15.0,-999.0,87,-99.99,,,0.01,weatherlink.com 1.10,2013-01-12 20:34:00,
2013-01-12 14:49:00,74.2,70.0,30.46,SSE,159,12.0,-999.0,86,-99.99,,,0.01,weatherlink.com 1.10,2013-01-12 20:49:00,
2013-01-12 15:04:00,74.4,70.0,30.44,South,171,12.0,-999.0,86,-99.99,,,0.01,weatherlink.com 1.10,2013-01-12 21:04:00,
2013-01-12 15:19:00,74.4,70.0,30.46,South,175,9.0,-999.0,86,-99.99,,,0.01,weatherlink.com 1.10,2013-01-12 21:19:00,
2013-01-12 15:34:00,74.2,70.0,30.46,SW,217,14.0,-999.0,86,-99.99,,,0.01,weatherlink.com 1.10,2013-01-12 21:34:00,
2013-01-12 15:49:00,74.2,70.0,30.48,South,184,10.0,-999.0,86,-99.99,,,0.01,weatherlink.com 1.10,2013-01-12 21:49:00,
2013-01-12 16:04:00,74.1,70.0,30.48,SSW,209,17.0,-999.0,86,-99.99,,,0.01,weatherlink.com 1.10,2013-01-12 22:04:00,
2013-01-12 16:19:00,73.9,70.0,30.49,South,184,5.0,-999.0,86,-99.99,,,0.01,weatherlink.com 1.10,2013-01-12 22:19:00,
2013-01-12 16:34:00,73.6,70.0,30.49,SSE,167,12.0,-999.0,87,-99.99,,,0.01,weatherlink.com 1.10,2013-01-12 22:34:00,
2013-01-12 16:49:00,73.1,69.0,30.49,South,188,7.0,-999.0,88,-99.99,,,0.01,weatherlink.com 1.10,2013-01-12 22:49:00,
2013-01-12 17:04:00,72.8,70.0,30.48,SSW,201,6.0,-999.0,89,-99.99,,,0.01,weatherlink.com 1.10,2013-01-12 23:04:00,
2013-01-12 17:19:00,72.6,69.0,30.49,South,171,6.0,-999.0,89,-99.99,,,0.01,weatherlink.com 1.10,2013-01-12 23:19:00,
2013-01-12 17:34:00,72.7,69.0,30.49,South,171,9.0,-999.0,89,-99.99,,,0.01,weatherlink.com 1.10,2013-01-12 23:34:00,
2013-01-12 17:49:00,72.6,69.0,30.48,South,169,7.0,-999.0,89,-99.99,,,0.01,weatherlink.com 1.10,2013-01-12 23:49:00,
2013-01-12 18:04:00,72.6,69.0,30.48,SSE,165,4.0,-999.0,89,-99.99,,,0.01,weatherlink.com 1.10,2013-01-13 00:04:00,
2013-01-12 18:19:00,72.4,69.0,30.48,South,173,7.0,-999.0,89,-99.99,,,0.01,weatherlink.com 1.10,2013-01-13 00:19:00,
2013-01-12 18:34:00,72.5,69.0,30.49,SSE,167,12.0,-999.0,89,-99.99,,,0.01,weatherlink.com 1.10,2013-01-13 00:34:00,
2013-01-12 18:49:00,72.4,69.0,30.47,South,190,10.0,-999.0,89,-99.99,,,0.01,weatherlink.com 1.10,2013-01-13 00:49:00,
2013-01-12 19:04:00,72.4,69.0,30.48,South,175,10.0,-999.0,89,-99.99,,,0.01,weatherlink.com 1.10,2013-01-13 01:04:00,
2013-01-12 19:19:00,72.3,69.0,30.49,South,180,5.0,-999.0,89,-99.99,,,0.01,weatherlink.com 1.10,2013-01-13 01:19:00,
2013-01-12 19:34:00,72.5,69.0,30.49,South,189,7.0,-999.0,89,-99.99,,,0.01,weatherlink.com 1.10,2013-01-13 01:34:00,
2013-01-12 19:49:00,72.5,69.0,30.50,SSW,200,5.0,-999.0,89,-99.99,,,0.01,weatherlink.com 1.10,2013-01-13 01:49:00,
2013-01-12 20:04:00,72.5,69.0,30.51,South,178,4.0,-999.0,89,-99.99,,,0.01,weatherlink.com 1.10,2013-01-13 02:04:00,
2013-01-12 20:19:00,72.4,69.0,30.51,WSW,238,7.0,-999.0,89,-99.99,,,0.01,weatherlink.com 1.10,2013-01-13 02:19:00,
2013-01-12 20:34:00,72.3,69.0,30.50,SSW,200,7.0,-999.0,90,-99.99,,,0.01,weatherlink.com 1.10,2013-01-13 02:34:00,
2013-01-12 20:49:00,72.0,69.0,30.50,SW,215,3.0,-999.0,90,-99.99,,,0.01,weatherlink.com 1.10,2013-01-13 02:49:00,
2013-01-12 21:04:00,71.8,69.0,30.51,South,188,4.0,-999.0,91,-99.99,,,0.01,weatherlink.com 1.10,2013-01-13 03:04:00,
2013-01-12 21:19:00,71.6,69.0,30.50,South,182,6.0,-999.0,91,-99.99,,,0.01,weatherlink.com 1.10,2013-01-13 03:19:00,
2013-01-12 21:34:00,71.7,69.0,30.51,SSW,196,0.0,-999.0,91,-99.99,,,0.01,weatherlink.com 1.10,2013-01-13 03:34:00,
2013-01-12 21:49:00,63.5,57.0,30.55,NNW,344,4.0,-999.0,78,-99.99,,,0.02,weatherlink.com 1.10,2013-01-13 03:49:00,
2013-01-12 22:04:00,55.9,52.0,30.56,NNW,344,7.0,-999.0,85,-99.99,,,0.02,weatherlink.com 1.10,2013-01-13 04:04:00,
2013-01-12 22:19:00,53.8,50.0,30.57,North,11,3.0,-999.0,87,-99.99,,,0.02,weatherlink.com 1.10,2013-01-13 04:19:00,
2013-01-12 22:34:00,53.1,49.0,30.57,NW,325,8.0,-999.0,87,-99.99,,,0.02,weatherlink.com 1.10,2013-01-13 04:34:00,
2013-01-12 22:49:00,51.4,48.0,30.59,NNW,338,15.0,-999.0,89,-99.99,,,0.02,weatherlink.com 1.10,2013-01-13 04:49:00,
2013-01-12 23:04:00,50.6,48.0,30.58,NNW,348,4.0,-999.0,90,-99.99,,,0.02,weatherlink.com 1.10,2013-01-13 05:04:00,
2013-01-12 23:20:00,49.9,47.0,30.59,North,355,6.0,-999.0,91,-99.99,,,0.02,weatherlink.com 1.10,2013-01-13 05:20:00,
2013-01-12 23:35:00,49.2,47.0,30.61,NNW,336,0.0,-999.0,91,-99.99,,,0.02,weatherlink.com 1.10,2013-01-13 05:35:00,
2013-01-12 23:50:00,48.4,46.0,30.61,North,360,6.0,-999.0,92,-99.99,,,0.02,weatherlink.com 1.10,2013-01-13 05:50:00,